Weather History for KIPT - March, 2013

Change the Weather History Date:

Thursday, March 28, 2013

  Actual Average Record
Temperature  
Mean Temperature 41 °F 43 °F  
Max Temperature 47 °F 53 °F 83 °F (1945)
Min Temperature 35 °F 33 °F 16 °F (1982)
Degree Days  
Heating Degree Days 24 22  
Month to date heating degree days 798 765  
Since 1 July heating degree days 4964 5232  
Cooling Degree Days 0 0  
Month to date cooling degree days 0 0  
Year to date cooling degree days 0 0  
Moisture  
Dew Point 26 °F    
Average Humidity 60    
Maximum Humidity 82    
Minimum Humidity 37    
Precipitation  
Precipitation T in 0.11 in 1.90 in (1932)
Month to date precipitation 1.34 2.64  
Year to date precipitation 5.80 7.68  
Snow  
Snow T in 0.20 in 8.50 in (1932)
Month to date snowfall 5.6 6.6  
Since 1 July snowfall 32.7 34.6  
Snow Depth 0.00 in    
Sea Level Pressure  
Sea Level Pressure 30.11 in    
Wind  
Wind Speed 8 mph (WNW)    
Max Wind Speed 16 mph    
Max Gust Speed 22 mph    
Visibility 10 miles    
Events Snow    
T = Trace of Precipitation, MM = Missing Value Source: NWS Daily Summary

Daily Weather History Graph

Daily Weather History Graph

Search for Another Location

Airport or City:

Trip Planner

Search our weather history database for the weather conditions in past years. The results will help you decide how hot, cold, wet, or windy it might be!

Date:

Astronomy

Mar. 28, 2013 Rise Set
Actual Time 6:57 AM EDT 7:28 PM EDT
Civil Twilight 6:29 AM EDT 7:56 PM EDT
Nautical Twilight 5:56 AM EDT 8:29 PM EDT
Astronomical Twilight 5:23 AM EDT 9:02 PM EDT
Moon 9:19 PM EDT (3/28) 7:22 AM EDT (3/28)
Length of Visible Light 13h 26m
Length of Day
12h 31m
Full, 98% of the Moon is Illuminated
Mar 28
Full
Apr 3
Last Quarter
Apr 10
New
Apr 18
First Quarter
Apr 25
Full

Hourly Weather History & Observations

Time (EDT) Temp. Windchill Dew Point Humidity Pressure Visibility Wind Dir Wind Speed Gust Speed Precip Events Conditions
12:54 AM 37.0 °F 30.4 °F 28.0 °F 70% 30.05 in 10.0 mi West 9.2 mph - N/A   Overcast
1:54 AM 36.0 °F 29.6 °F 27.0 °F 70% 30.05 in 10.0 mi WNW 8.1 mph - N/A   Scattered Clouds
2:54 AM 35.1 °F 29.3 °F 27.0 °F 72% 30.04 in 10.0 mi West 6.9 mph - N/A   Mostly Cloudy
3:54 AM 36.0 °F 30.3 °F 28.9 °F 76% 30.04 in 9.0 mi West 6.9 mph - 0.00 in Snow Light Snow
4:54 AM 35.1 °F 30.1 °F 30.0 °F 82% 30.04 in 10.0 mi West 5.8 mph - 0.00 in   Overcast
5:54 AM 35.1 °F 31.0 °F 30.0 °F 82% 30.04 in 10.0 mi West 4.6 mph - N/A   Overcast
6:54 AM 35.1 °F 29.3 °F 30.0 °F 82% 30.05 in 10.0 mi West 6.9 mph - N/A   Overcast
7:54 AM 36.0 °F 29.6 °F 30.0 °F 79% 30.07 in 10.0 mi West 8.1 mph - N/A   Overcast
8:54 AM 37.0 °F 31.6 °F 30.0 °F 76% 30.09 in 10.0 mi West 6.9 mph - N/A   Overcast
9:54 AM 39.9 °F 35.8 °F 28.0 °F 63% 30.10 in 10.0 mi WNW 5.8 mph - N/A   Overcast
10:54 AM 43.0 °F 36.8 °F 25.0 °F 49% 30.10 in 10.0 mi NNW 11.5 mph - N/A   Overcast
11:54 AM 45.0 °F 41.2 °F 24.1 °F 44% 30.11 in 10.0 mi NW 6.9 mph 16.1 mph N/A   Overcast
12:54 PM 45.0 °F 39.7 °F 21.9 °F 40% 30.10 in 10.0 mi WNW 10.4 mph - N/A   Overcast
1:54 PM 45.0 °F 41.2 °F 23.0 °F 42% 30.11 in 10.0 mi NW 6.9 mph - N/A   Overcast
2:54 PM 46.0 °F 40.2 °F 21.9 °F 39% 30.11 in 10.0 mi NW 12.7 mph 21.9 mph N/A   Overcast
3:54 PM 46.0 °F 41.4 °F 23.0 °F 40% 30.11 in 10.0 mi NW 9.2 mph - N/A   Overcast
4:54 PM 46.0 °F 41.0 °F 23.0 °F 40% 30.11 in 10.0 mi NW 10.4 mph - N/A   Overcast
5:54 PM 45.0 °F 41.2 °F 23.0 °F 42% 30.13 in 10.0 mi WNW 6.9 mph - N/A   Overcast
6:54 PM 44.1 °F 39.0 °F 23.0 °F 43% 30.15 in 10.0 mi NW 9.2 mph - N/A   Overcast
7:54 PM 43.0 °F 38.2 °F 23.0 °F 45% 30.17 in 10.0 mi WNW 8.1 mph - N/A   Overcast
8:54 PM 42.1 °F 37.7 °F 23.0 °F 47% 30.19 in 10.0 mi WNW 6.9 mph - N/A   Overcast
9:54 PM 41.0 °F 37.1 °F 24.1 °F 51% 30.20 in 10.0 mi WNW 5.8 mph - N/A   Overcast
10:54 PM 41.0 °F 37.1 °F 24.1 °F 51% 30.21 in 10.0 mi WNW 5.8 mph - N/A   Overcast
11:54 PM 39.9 °F 36.7 °F 24.1 °F 53% 30.21 in 10.0 mi WNW 4.6 mph - N/A   Overcast